www.pogodaiklimat.ru

Погода и климат >> Архив погоды >> Россия >> Волгоградская область >> Фролово


АРХИВ ПОГОДЫ в Фролове

Время (UTC), дата Ветер
(напр.,м/с)
 
Видим.   Явления Облачность Т
(С)
Тd
(С)
f
(%)
Тe
(С)
Тes
(С)
Комфортность P
(гПа)
Po
(гПа)
Тmin
(С)
Tmax
(С)
R
(мм)
R24
(мм)
S
(см)
06 16.08 Ю 2 10 км 10/0
[Ac cast Cs]
+27.6 +9.9 33 +28 +33 жарко 1012.0 998.4
09 16.08 Ю 4 10 км 10/0
[Ac cast Cs]
+28.9 +7.6 26 +28 +33 жарко 1011.2 997.7
12 16.08 ЮВ 3
{10}
10 км ясно +31.0 +8.3 24 +30 +37 жарко 1009.9 996.5
15 16.08 ЮВ 1
{10}
10 км 9/0
[Ac As]
+29.8 +8.5 26 +29 +29 жарко 1009.3 995.9 +32.0
18 16.08 В 3 20 км 10/0
[Ac As]
+27.4 +9.0 31 +27 +27 жарко 1009.5 995.9
21 16.08 ЮВ 2 20 км 10/0
[Ac As]
+25.5 +9.5 36 +26 +26 жарко 1009.3 995.7
00 17.08 Ю 2 20 км 10/0
[Ac As]
+23.9 +7.0 34 +24 +24 комфорт 1010.4 996.6
03 17.08 ЮВ 2 10 км 10/0
[Ac As]
+22.2 +8.6 42 +24 +24 комфорт 1010.4 996.6 +22.2
06 17.08 В 2 10 км 10/0
[Ac As]
+23.8 +9.7 41 +25 +27 комфорт 1010.6 996.9 +22.0
09 17.08 Ю 5-10
{10}
10 км 8/0
[Ac As]
+31.1 +6.1 21 +29 +33 жарко 1009.2 995.8
12 17.08 ЮВ 4
{11}
10 км 10/0
[Ac As]
+29.4 +7.0 24 +28 +30 жарко 1008.5 995.1
15 17.08 Ю 5-10
{12}
10 км 9/9 600 м
[Sc]
+29.4 +7.4 25 +28 +28 жарко 1008.3 994.8 +31.7
18 17.08 штиль 0
{10}
20 км 6/0
[Ac As]
+21.4 +11.4 53 +23 +23 комфорт 1009.0 995.2
21 17.08 В 1 20 км ясно +20.6 +10.9 54 +24 +24 комфорт 1009.6 995.7
00 18.08 В 1 20 км ясно +19.2 +10.8 58 +21 +21 комфорт 1010.2 996.3
03 18.08 В 1 10 км ясно +18.8 +13.3 70 +21 +21 комфорт 1010.8 996.9 +17.0
06 18.08 ЮВ 1 10 км 9/0
[Ac trans]
+25.3 +15.7 55 +28 +33 жарко 1011.2 997.6
09 18.08 Ю 3 10 км 4/0
[Ac trans]
+31.6 +7.3 22 +30 +39 жарко 1010.5 997.1
12 18.08 Ю 1 10 км 9/4 600 м
[Cu hum Cs]
+31.6 +6.6 21 +30 +35 жарко 1010.7 997.3
15 18.08 ЮВ 1
{10}
10 км 9/0
[Ac As]
+26.7 +10.2 36 +27 +28 жарко 1012.3 998.7 +33.0
18 18.08 В 2 20 км 6/0
[Ac As]
+24.3 +12.1 46 +26 +26 жарко 1012.5 998.7
21 18.08 В 2 20 км 9/0
[Ac As]
+22.5 +12.4 53 +25 +25 комфорт 1013.3 999.4
00 19.08 ЮВ 1 20 км 6/0
[Ac As]
+22.0 +9.6 45 +24 +24 комфорт 1013.8 1000.0
03 19.08 С 1 10 км 6/0
[Ac As]
+18.0 +10.1 60 +19 +19 1015.3 1001.2 +18.0
06 19.08 В 2 10 км 3/0
[Ci fib]
+27.0 +9.2 33 +27 +35 жарко 1015.1 1001.5 +17.4
09 19.08 ЮВ 2 10 км 3/0
[Cc]
+32.1 +6.9 21 +30 +43 жарко 1015.2 1001.8
12 19.08 ЮЗ 1 10 км 8/0
[Cs]
+35.1 +4.1 14 +32 +40 жарко 1015.2 1001.9
15 19.08 штиль 0 10 км 4/0
[Ac und Ci fib]
+33.6 +7.6 20 +32 +33 жарко 1014.9 1001.6 +35.2
18 19.08 СВ 3 20 км ясно +25.7 +11.6 41 +27 +27 жарко 1016.4 1002.7
21 19.08 С 1 20 км ясно +21.5 +11.6 53 +24 +24 комфорт 1016.3 1002.4
00 20.08 С 1 20 км ясно +18.6 +9.8 57 +20 +20 1016.4 1002.3
03 20.08 СВ 1 10 км ясно +17.6 +10.8 64 +19 +19 1017.2 1003.1 +16.8
06 20.08 ЮЗ 2 10 км ясно +27.0 +11.4 38 +28 +36 жарко 1017.7 1004.0
09 20.08 штиль 0 10 км 8/8 1000 м
[Cu med, cong]
+31.4 +11.5 29 +32 +35 жарко 1017.6 1004.1
12 20.08 СЗ 1 10 км ясно +35.5 +12.5 25 +35 +45 очень
жарко
1016.7 1003.4
15 20.08 С 2 10 км ясно +32.1 +12.9 31 +33 +33 жарко 1016.9 1003.5 +35.7
18 20.08 С 3 20 км ясно +26.5 +17.0 56 +30 +30 душно 1018.6 1004.9
21 20.08 С 2 20 км ясно +22.0 +14.6 63 +25 +25 комфорт 1019.3 1005.4
00 21.08 С 2 20 км ясно +19.6 +14.1 71 +22 +22 комфорт 1019.5 1005.5
03 21.08 С 1 10 км ясно +18.2 +14.0 76 +20 +20 1020.0 1005.9 +17.8
06 21.08 С 3 10 км ясно +25.6 +15.7 54 +29 +35 душно 1019.8 1006.0
09 21.08 С 2 10 км ясно +32.0 +13.6 33 +33 +47 жарко 1018.4 1004.9
12 21.08 СВ 3 10 км ясно +34.0 +10.8 24 +33 +40 жарко 1017.2 1003.9
15 21.08 СВ 4 10 км ясно +31.9 +10.9 28 +32 +32 жарко 1017.1 1003.7 +34.1
18 21.08 В 3 20 км ясно +27.3 +13.5 43 +29 +29 жарко 1018.3 1004.7
21 21.08 СВ 4
{10}
20 км ясно +24.4 +13.0 49 +26 +26 жарко 1018.9 1005.1
00 22.08 СВ 3 20 км ясно +21.3 +12.5 57 +24 +24 комфорт 1018.8 1004.9
03 22.08 СВ 2 10 км ясно +20.3 +13.2 64 +23 +23 комфорт 1019.1 1005.1 +19.6
06 22.08 В 2 10 км ясно +27.7 +13.5 42 +30 +37 жарко 1018.4 1004.8
09 22.08 В 2 10 км ясно +31.8 +11.9 30 +32 +46 жарко 1017.9 1004.4
12 22.08 СВ 2 10 км ясно +32.8 +11.3 27 +33 +41 жарко 1017.1 1003.7
15 22.08 В 2 10 км ясно +31.3 +10.7 28 +31 +32 жарко 1017.1 1003.6 +33.0
18 22.08 В 2 20 км ясно +26.7 +11.0 37 +28 +28 жарко 1018.1 1004.4
21 22.08 СВ 2 20 км ясно +23.9 +10.7 43 +25 +25 комфорт 1018.4 1004.6
00 23.08 штиль 0 20 км ясно +20.3 +12.0 59 +22 +22 комфорт 1018.8 1004.8
03 23.08 С 1 10 км 8/0
[Ci fib]
+18.3 +12.4 68 +20 +20 1019.5 1005.4 +16.3

 

Местоположение метеостанции Фролово (Волгоградская область, Россия): широта 49.80 долгота 43.67 высота над уровнем моря 119 м.

В архиве по умолчанию представлена погода в Фролове за последнюю неделю. Архивные данные за месяц целиком и за предыдущие месяцы, начиная с января 2011 года, Вы можете получить, выбрав интересующий диапазон дат из раскрывающегося списка и нажав кнопку "Ввод!".


*Определитесь, кто Вы:
робот инопланетянин человек

Внимание! Время в таблицах - всемирное. Для получения местного времени необходимо прибавить поправку, которая равна 3 ч.

Смотрите также архив погоды в соседних городах и на ближайших метеорологических станциях:

Погода в Михайловке (Волгоградская область, Россия) (42 км)
Погода в Иловле (Волгоградская область, Россия) (60 км)
Погода в Ольховке (Волгоградская область, Россия) (64 км)
Погода в Даниловке (Волгоградская область, Россия) (71 км)
Погода в Серафимовиче (Волгоградская область, Россия) (72 км)
Погода в Новоаннинском (Волгоградская область, Россия) (108 км)
Погода в Волгограде (Волгоградская область, Россия) (124 км)
Погода в Калаче-на-Дону (Волгоградская область, Россия) (125 км)
Погода в Камышине (Волгоградская область, Россия) (125 км)
Погода в Елани (Волгоградская область, Россия) (128 км)

Пояснения к столбцам:

Ветер - указаны скорость ветра в м/с - средняя за 10 мин, порывы в срок и между сроками (в фигурных скобках) и направление, откуда дует ветер: С - северный, СВ - северо-восточный, В - восточный, ЮВ - юго-восточный, Ю - южный, ЮЗ - юго-западный, З - западный, СЗ - северо-западный.
Видимость - горизонтальная дальность видимости в метрах или километрах. При видимости от 1 до 10 км при отсутствии осадков обычно наблюдается дымка, при ухудшении видимости до 1 км и менее - туман. В сухую погоду видимость может ухудшаться дымом, пылью или мглою.
Явления - указаны атмосферные явления, наблюдавшиеся в срок или в последний час перед сроком; фигурными скобками обозначены явления, наблюдавшиеся между сроками (за 1-3 часа до срока); квадратными скобками обозначены град или гололедные отложения с указанием их диаметра в мм.
Облачность - указаны через наклонную черту общая и нижняя облачность в баллах и высота нижней границы облаков в метрах; квадратными скобками обозначены формы облаков: Ci - перистые, Cs - перисто-слоистые, Cc - перисто-кучевые, Ac - высококучевые, As - высокослоистые, Sc - слоисто-кучевые, Ns - слоисто-дождевые, Cu - кучевые, Cb - кучево-дождевые. Подробнее классификацию облаков см. в Атласе облаков (PDF).
T - Температура воздуха - температура, измеренная на высоте 2 м над землей.
Td - Температура точки росы - температура, при понижении до которой содержащийся в воздухе водяной пар достигнет насыщения.
f - Относительная влажность воздуха - влажноcть воздуха, измеренная на высоте 2 м над землей.
Te - Эффективная температура - температура, которую ощущает одетый по сезону человек в тени. Характеристика душности погоды. При расчете учитывается влияние влажности воздуха и скорости ветра на теплоощущения человека.
Tes - Эффективная температура на солнце - температура, которую ощущает человек, с поправкой на солнечный нагрев. Характеристика знойности погоды. Зависит от высоты солнца над горизонтом, облачности и скорости ветра. Ночью, в пасмурную погоду, а также при ветре 12 м/с и более поправка равна нулю.
P - Атмосферное давление - приведенное к уровню моря атмосферное давление.
Po - Атмосферное давление - измеренное на уровне метеостанции атмосферное давление.
Tmin - Минимальная температура - минимум температуры воздуха на высоте 2 м над землей.
Tmax - Максимальная температура - максимум температуры воздуха на высоте 2 м над землей.
R - Количество осадков - Количество выпавших осадков за период времени, мм. При наведении курсора мыши на число - период времени, за который выпало указанное количество осадков.
R24 - Количество осадков - Количество выпавших осадков за 24 часа, мм.
S - Снежный покров - Высота снежного покрова, см. При наведении курсора мыши на число - состояние снежного покрова и степень покрытия местности в баллах.